Location: Brunembert
(50.7122°N, 1.8935°E)
Time: 04:26:00
(UTC+00:00)

Cosmos 2297 Rocket - Pass Details

Date: 22 April 2021
Orbit: 838 x 844 km, 71.0° (Epoch: 06 May)

Event Time Altitude Azimuth Distance (km) Brightness Sun altitude
Rises 20:40:58 0° 208° (SSW) 3,383 5.2 -14.5°
Reaches altitude 10° 20:43:23 10° 209° (SSW) 2,453 4.5 -14.8°
Maximum altitude 20:49:02 87° 299° (WNW) 850 2.2 -15.4°
Drops below altitude 10° 20:54:44 10° 29° (NNE) 2,473 4.8 -16.1°
Sets 20:57:12 0° 30° (NNE) 3,413 5.6 -16.4°
